This is the latest recevied weather packets stored in our database for station/object KF0EZB. If no packets are shown the sender has not sent any weather packets the latest 10 day(s).
| Time | Temp. | Humidity | Pressure | Rain* | Wind** | Luminosity | Snow |
|---|---|---|---|---|---|---|---|
| 1777327785 | 20.56° C | 53% | 1010.3 hPa | 0 mm | - | 457 W/m² | - |
| 1777327483 | 20.56° C | 52% | 1010.3 hPa | 0 mm | - | 458 W/m² | - |
| 1777327179 | 20.56° C | 52% | 1010.2 hPa | 0 mm | - | 457 W/m² | - |
| 1777326877 | 20.56° C | 52% | 1010 hPa | 0 mm | - | 485 W/m² | - |
| 1777326573 | 20° C | 53% | 1010.2 hPa | 0 mm | - | 509 W/m² | - |
| 1777326271 | 20.56° C | 53% | 1010 hPa | 0 mm | - | 507 W/m² | - |
| 1777325968 | 20.56° C | 52% | 1009.8 hPa | 0 mm | - | 522 W/m² | - |
| 1777325666 | 20° C | 53% | 1009.8 hPa | 0 mm | - | 551 W/m² | - |
| 1777325364 | 20° C | 55% | 1009.9 hPa | 0 mm | - | 554 W/m² | - |
| 1777325062 | 20.56° C | 53% | 1010 hPa | 0 mm | - | 561 W/m² | - |
| 1777324758 | 20° C | 54% | 1009.9 hPa | 0 mm | - | 583 W/m² | - |
| 1777324456 | 20° C | 54% | 1009.9 hPa | 0 mm | - | 602 W/m² | - |
| 1777324153 | 20° C | 55% | 1009.8 hPa | 0 mm | - | 599 W/m² | - |
| 1777323851 | 20° C | 56% | 1009.8 hPa | 0 mm | - | 629 W/m² | - |
| 1777323548 | 20° C | 54% | 1009.5 hPa | 0 mm | - | 668 W/m² | - |
| 1777323245 | 20° C | 54% | 1009.6 hPa | 0 mm | - | 641 W/m² | - |
| 1777322942 | 19.44° C | 56% | 1009.8 hPa | 0 mm | - | 648 W/m² | - |
| 1777322641 | 20.56° C | 54% | 1009.5 hPa | 0 mm | - | 674 W/m² | - |
| 1777322337 | 20.56° C | 55% | 1009.4 hPa | 0 mm | - | 684 W/m² | - |
| 1777322035 | 20° C | 55% | 1009.4 hPa | 0 mm | - | 732 W/m² | - |
| 1777321731 | 19.44° C | 55% | 1009.5 hPa | 0 mm | - | 691 W/m² | - |
| 1777321428 | 20° C | 56% | 1009.5 hPa | 0 mm | - | 667 W/m² | - |
| 1777321125 | 20° C | 55% | 1009.5 hPa | 0 mm | - | 658 W/m² | - |
| 1777320823 | 20° C | 55% | 1009.5 hPa | 0 mm | - | 663 W/m² | - |
| 1777320519 | 20° C | 55% | 1009.4 hPa | 0 mm | - | 700 W/m² | - |
* Rain latest hour (hover to see other rain measurements)
** Current wind speed in m/s (hover to see current wind gust speed)